Location: *
(31.2983°S, 151.4094°E)
Time: 17:55:12
(UTC+00:00)

Cosmos 2084 - Pass Details

Date: 25 August 2019
Orbit: 552 x 631 km, 62.8° (Epoch: 17 October)

Event Time Altitude Azimuth Distance (km) Brightness Sun altitude
Exits shadow 19:28:07 - 209° (SSW) 2,889 6.7 -11.5°
Reaches altitude 10° 19:30:22 10° 207° (SSW) 2,002 5.9 -11.0°
Maximum altitude 19:34:56 78° 120° (ESE) 647 3.7 -10.1°
Drops below altitude 10° 19:39:30 10° 33° (NNE) 2,007 6.8 -9.1°
Sets 19:41:47 0° 32° (NNE) 2,910 7.6 -8.6°
